When you browse on this site, cookies collect data to enhance your experience and personalize the content and advertising you see.
Visit our Privacy Policy to learn more. By continuing to use the site, you agree to this use of cookies and data.
  • în România
  • Lista ţărilor
  • Pe 7 zile
  • Temperatura apei
  • Hartă satelitară
  • Meteo pe hartă
  • Widget-uri
  • user-avatar
    Intrare

    Meteo pe oră la Tonton

    Astăzi, 19 Aprilie, Vineri

    Timp Temperatura Precipitaţii Vânt Presiune Umiditate
    00:00 +10°C° 0 mm 3 m/s 767 mmHg 83%
    01:00 +9°C° 0 mm 3 m/s 767 mmHg 82%
    02:00 +9°C° 0 mm 3 m/s 767 mmHg 82%
    03:00 +9°C° 0 mm 3 m/s 767 mmHg 82%
    04:00 +9°C° 0 mm 3 m/s 767 mmHg 83%
    05:00 +9°C° 0 mm 3 m/s 768 mmHg 85%
    06:00 +9°C° 0 mm 3 m/s 768 mmHg 87%
    07:00 +11°C° 0 mm 3 m/s 768 mmHg 85%
    08:00 +13°C° 0 mm 3 m/s 769 mmHg 83%
    09:00 +16°C° 0 mm 3 m/s 769 mmHg 80%
    10:00 +17°C° 0 mm 3 m/s 769 mmHg 77%
    11:00 +19°C° 0 mm 3 m/s 769 mmHg 73%
    12:00 +20°C° 0 mm 3 m/s 770 mmHg 69%
    13:00 +21°C° 0 mm 3 m/s 770 mmHg 69%
    14:00 +21°C° 0 mm 3 m/s 770 mmHg 68%
    15:00 +21°C° 0 mm 3 m/s 770 mmHg 68%
    16:00 +20°C° 0 mm 3 m/s 770 mmHg 73%
    17:00 +20°C° 0 mm 2 m/s 770 mmHg 78%
    18:00 +19°C° 0 mm 2 m/s 770 mmHg 83%
    19:00 +17°C° 0 mm 2 m/s 770 mmHg 86%
    20:00 +16°C° 0 mm 2 m/s 771 mmHg 88%
    21:00 +13°C° 0 mm 3 m/s 771 mmHg 91%
    22:00 +13°C° 0 mm 2 m/s 771 mmHg 90%
    23:00 +12°C° 0 mm 2 m/s 771 mmHg 89%

    Mâine, 20 Aprilie, Sâmbătă

    Timp Temperatura Precipitaţii Vânt Presiune Umiditate
    00:00 +12°C° 0 mm 2 m/s 771 mmHg 88%
    01:00 +10°C° 0 mm 2 m/s 771 mmHg 87%
    02:00 +9°C° 0 mm 2 m/s 771 mmHg 86%
    03:00 +9°C° 0 mm 2 m/s 771 mmHg 85%
    04:00 +9°C° 0 mm 2 m/s 771 mmHg 87%
    05:00 +9°C° 0 mm 2 m/s 771 mmHg 88%
    06:00 +8°C° 0 mm 2 m/s 771 mmHg 89%
    07:00 +10°C° 0 mm 3 m/s 771 mmHg 85%
    08:00 +12°C° 0 mm 3 m/s 771 mmHg 81%
    09:00 +14°C° 0 mm 3 m/s 771 mmHg 78%
    10:00 +17°C° 0 mm 3 m/s 771 mmHg 75%
    11:00 +18°C° 0 mm 3 m/s 771 mmHg 73%
    12:00 +19°C° 0 mm 3 m/s 771 mmHg 71%
    13:00 +20°C° 0 mm 3 m/s 770 mmHg 70%
    14:00 +20°C° 0 mm 3 m/s 770 mmHg 70%
    15:00 +21°C° 0 mm 3 m/s 770 mmHg 70%
    16:00 +20°C° 0 mm 3 m/s 769 mmHg 74%
    17:00 +19°C° 0 mm 3 m/s 769 mmHg 79%
    18:00 +19°C° 0 mm 3 m/s 769 mmHg 84%
    19:00 +17°C° 0 mm 2 m/s 769 mmHg 86%
    20:00 +16°C° 0 mm 2 m/s 769 mmHg 88%
    21:00 +14°C° 0 mm 2 m/s 769 mmHg 90%
    22:00 +14°C° 0 mm 2 m/s 769 mmHg 91%
    23:00 +13°C° 0 mm 2 m/s 768 mmHg 92%

    Poimâine, 21 Aprilie, Duminică

    Timp Temperatura Precipitaţii Vânt Presiune Umiditate
    00:00 +12°C° 0 mm 2 m/s 768 mmHg 92%
    01:00 +12°C° 0 mm 1 m/s 768 mmHg 92%
    02:00 +11°C° 0 mm 1 m/s 767 mmHg 92%
    03:00 +11°C° 0 mm 1 m/s 766 mmHg 91%
    04:00 +11°C° 0 mm 1 m/s 766 mmHg 90%
    05:00 +11°C° 0 mm 1 m/s 766 mmHg 89%
    06:00 +11°C° 0 mm 1 m/s 765 mmHg 88%
    07:00 +13°C° 0 mm 1 m/s 765 mmHg 82%
    08:00 +14°C° 0 mm 1 m/s 765 mmHg 77%
    09:00 +16°C° 0 mm 1 m/s 765 mmHg 72%
    10:00 +18°C° 0 mm 1 m/s 764 mmHg 68%
    11:00 +19°C° 0 mm 1 m/s 764 mmHg 65%
    12:00 +20°C° 0 mm 1 m/s 763 mmHg 61%
    13:00 +19°C° 0 mm 2 m/s 762 mmHg 62%
    14:00 +19°C° 0 mm 2 m/s 762 mmHg 63%
    15:00 +20°C° 0 mm 2 m/s 761 mmHg 64%
    16:00 +19°C° 0 mm 2 m/s 761 mmHg 70%
    17:00 +18°C° 0 mm 2 m/s 760 mmHg 77%
    18:00 +17°C° 0 mm 2 m/s 760 mmHg 84%
    19:00 +15°C° 0 mm 2 m/s 759 mmHg 85%
    20:00 +13°C° 0 mm 2 m/s 759 mmHg 87%
    21:00 +12°C° 0 mm 2 m/s 759 mmHg 89%
    22:00 +10°C° 0 mm 2 m/s 759 mmHg 89%
    23:00 +10°C° 0 mm 2 m/s 758 mmHg 89%

    22 Aprilie, Luni

    Timp Temperatura Precipitaţii Vânt Presiune Umiditate
    00:00 +9°C° 0 mm 2 m/s 758 mmHg 89%
    01:00 +9°C° 0 mm 2 m/s 757 mmHg 90%
    02:00 +9°C° 0 mm 2 m/s 756 mmHg 92%
    03:00 +8°C° 0 mm 2 m/s 755 mmHg 93%
    04:00 +9°C° 0 mm 3 m/s 755 mmHg 94%
    05:00 +9°C° 0 mm 3 m/s 755 mmHg 94%
    06:00 +9°C° 0 mm 3 m/s 754 mmHg 95%
    07:00 +11°C° 0 mm 3 m/s 754 mmHg 91%
    08:00 +13°C° 0 mm 4 m/s 754 mmHg 86%
    09:00 +15°C° 0 mm 4 m/s 753 mmHg 82%
    10:00 +16°C° 0 mm 5 m/s 753 mmHg 78%
    11:00 +17°C° 0 mm 5 m/s 753 mmHg 74%
    12:00 +19°C° 0 mm 5 m/s 752 mmHg 70%
    13:00 +19°C° 0 mm 5 m/s 752 mmHg 70%
    14:00 +19°C° 0 mm 5 m/s 751 mmHg 70%
    15:00 +19°C° 0 mm 5 m/s 751 mmHg 70%
    16:00 +18°C° 0 mm 4 m/s 751 mmHg 74%
    17:00 +17°C° 0 mm 3 m/s 750 mmHg 79%
    18:00 +16°C° 0 mm 3 m/s 750 mmHg 83%
    19:00 +14°C° 0 mm 2 m/s 750 mmHg 85%
    20:00 +13°C° 0 mm 2 m/s 750 mmHg 86%
    21:00 +10°C° 0 mm 2 m/s 750 mmHg 88%
    22:00 +10°C° 0 mm 2 m/s 750 mmHg 88%
    23:00 +9°C° 0 mm 2 m/s 750 mmHg 89%

    23 Aprilie, Marţi

    Timp Temperatura Precipitaţii Vânt Presiune Umiditate
    00:00 +9°C° 0 mm 2 m/s 749 mmHg 89%
    01:00 +9°C° 0 mm 2 m/s 749 mmHg 90%
    02:00 +9°C° 0 mm 2 m/s 748 mmHg 91%
    03:00 +9°C° 0 mm 2 m/s 748 mmHg 92%
    04:00 +9°C° 0 mm 3 m/s 748 mmHg 92%
    05:00 +9°C° 0 mm 3 m/s 747 mmHg 91%
    06:00 +9°C° 0 mm 3 m/s 747 mmHg 91%
    07:00 +11°C° 0 mm 3 m/s 747 mmHg 88%
    08:00 +13°C° 0 mm 3 m/s 747 mmHg 86%
    09:00 +16°C° 0 mm 3 m/s 747 mmHg 83%
    10:00 +17°C° 0.3 mm 4 m/s 747 mmHg 83%
    11:00 +17°C° 0.3 mm 4 m/s 747 mmHg 83%
    12:00 +17°C° 0.3 mm 5 m/s 747 mmHg 83%
    13:00 +17°C° 0 mm 5 m/s 747 mmHg 80%
    14:00 +17°C° 0 mm 5 m/s 746 mmHg 77%
    15:00 +17°C° 0 mm 5 m/s 746 mmHg 74%
    16:00 +16°C° 0 mm 5 m/s 746 mmHg 78%
    17:00 +15°C° 0 mm 4 m/s 746 mmHg 81%
    18:00 +15°C° 0 mm 4 m/s 746 mmHg 85%
    19:00 +14°C° 0 mm 4 m/s 747 mmHg 87%
    20:00 +13°C° 0 mm 4 m/s 747 mmHg 89%
    21:00 +12°C° 0 mm 4 m/s 747 mmHg 90%
    22:00 +12°C° 0 mm 4 m/s 747 mmHg 92%
    23:00 +12°C° 0 mm 4 m/s 747 mmHg 93%

    24 Aprilie, Miercuri

    Timp Temperatura Precipitaţii Vânt Presiune Umiditate
    00:00 +12°C° 0 mm 4 m/s 747 mmHg 94%
    01:00 +12°C° 0.1 mm 4 m/s 748 mmHg 95%
    02:00 +11°C° 0.1 mm 3 m/s 748 mmHg 96%
    03:00 +11°C° 0.1 mm 3 m/s 748 mmHg 97%
    04:00 +11°C° 0.1 mm 3 m/s 748 mmHg 97%
    05:00 +11°C° 0.1 mm 3 m/s 749 mmHg 97%
    06:00 +10°C° 0.1 mm 2 m/s 749 mmHg 96%
    07:00 +12°C° 0.1 mm 2 m/s 749 mmHg 92%
    08:00 +13°C° 0.1 mm 2 m/s 750 mmHg 87%
    09:00 +14°C° 0.1 mm 2 m/s 750 mmHg 82%
    10:00 +14°C° 0 mm 3 m/s 750 mmHg 79%
    11:00 +14°C° 0 mm 4 m/s 751 mmHg 75%
    12:00 +15°C° 0 mm 4 m/s 751 mmHg 71%
    13:00 +15°C° 0 mm 5 m/s 751 mmHg 73%
    14:00 +15°C° 0 mm 5 m/s 750 mmHg 75%
    15:00 +15°C° 0 mm 5 m/s 750 mmHg 77%
    16:00 +14°C° 0.8 mm 5 m/s 750 mmHg 83%
    17:00 +13°C° 0.8 mm 4 m/s 750 mmHg 88%
    18:00 +11°C° 0.8 mm 4 m/s 750 mmHg 94%
    19:00 +11°C° 0 mm 4 m/s 751 mmHg 95%
    20:00 +10°C° 0 mm 4 m/s 751 mmHg 96%
    21:00 +10°C° 0 mm 3 m/s 751 mmHg 96%
    22:00 +10°C° 0 mm 4 m/s 751 mmHg 97%
    23:00 +8°C° 0 mm 4 m/s 752 mmHg 97%
    Arată mai mult